Weather History for Harrison, AR

Change the Weather History Date:

Thursday, May 2, 2013

  Actual Average Record
Temperature  
Mean Temperature 48 °F 62 °F  
Max Temperature 60 °F 73 °F 91 °F (1943)
Min Temperature 35 °F 52 °F 26 °F (1911)
Degree Days  
Heating Degree Days 17 4  
Month to date heating degree days 17 8  
Since 1 July heating degree days 3853 3929  
Cooling Degree Days 0 2  
Month to date cooling degree days 3 4  
Year to date cooling degree days 35 41  
Moisture  
Dew Point 46 °F    
Average Humidity 86    
Maximum Humidity 100    
Minimum Humidity 72    
Precipitation  
Precipitation 0.54 in 0.16 in 3.13 in (1990)
Month to date precipitation 0.57 0.33  
Year to date precipitation 13.91 13.64  
Snow  
Snow 0.00 in 0.00 in - ()
Month to date snowfall 0.0 0.0  
Since 1 July snowfall 4.6 11.5  
Snow Depth 0.00 in    
Sea Level Pressure  
Sea Level Pressure 30.15 in    
Wind  
Wind Speed 9 mph (NW)    
Max Wind Speed 17 mph    
Max Gust Speed 24 mph    
Visibility 8 miles    
Events Rain    
T = Trace of Precipitation, MM = Missing Value Source: NWS Daily Summary

Daily Weather History Graph

Daily Weather History Graph

Search for Another Location

Airport:

Trip Planner

Search our weather history database for the weather conditions in past years. The results will help you decide how hot, cold, wet, or windy it might be!

Date:

Astronomy

May. 02, 2013 Rise Set
Actual Time 6:18 AM CDT 8:01 PM CDT
Civil Twilight 5:50 AM CDT 8:29 PM CDT
Nautical Twilight 5:17 AM CDT 9:02 PM CDT
Astronomical Twilight 4:41 AM CDT 9:38 PM CDT
Moon 1:52 AM CDT (5/2) 1:03 PM CDT (5/2)
Length of Visible Light 14h 38m
Length of Day
13h 43m
Waning Gibbous, 47% of the Moon is Illuminated
May 2
Waning Gibbous
May 9
New
May 17
First Quarter
May 24
Full
May 31
Last Quarter

Hourly Weather History & Observations

Time (CDT) Temp. Windchill Dew Point Humidity Pressure Visibility Wind Dir Wind Speed Gust Speed Precip Events Conditions
12:53 AM 60.1 °F - 57.9 °F 93% 30.06 in 10.0 mi Calm Calm - N/A   Scattered Clouds
1:53 AM 57.0 °F - 55.9 °F 96% 30.05 in 10.0 mi Calm Calm - N/A   Clear
2:53 AM 59.0 °F - 57.0 °F 93% 30.03 in 8.0 mi Calm Calm - N/A   Clear
3:53 AM 57.9 °F - 57.0 °F 97% 30.06 in 10.0 mi West 3.5 mph - N/A   Mostly Cloudy
4:53 AM 60.1 °F - 57.9 °F 93% 30.08 in 10.0 mi WNW 4.6 mph - N/A   Overcast
5:53 AM 59.0 °F - 57.0 °F 93% 30.09 in 10.0 mi NW 5.8 mph - N/A   Mostly Cloudy
6:53 AM 59.0 °F - 57.0 °F 93% 30.10 in 10.0 mi WNW 5.8 mph - N/A   Clear
7:18 AM 57.2 °F - 57.2 °F 100% 30.13 in 10.0 mi NW 10.4 mph - N/A   Scattered Clouds
7:27 AM 57.2 °F - 57.2 °F 100% 30.13 in 8.0 mi NW 9.2 mph - N/A   Mostly Cloudy
7:53 AM 57.9 °F - 57.0 °F 97% 30.12 in 8.0 mi NW 8.1 mph - N/A   Overcast
8:36 AM 57.2 °F - 53.6 °F 88% 30.16 in 10.0 mi NNW 8.1 mph - N/A   Overcast
8:53 AM 55.9 °F - 53.1 °F 90% 30.14 in 10.0 mi NW 8.1 mph - N/A   Mostly Cloudy
9:05 AM 55.4 °F - 51.8 °F 88% 30.17 in 10.0 mi NW 8.1 mph - N/A   Mostly Cloudy
9:43 AM 57.2 °F - 51.8 °F 82% 30.16 in 10.0 mi NW 8.1 mph - N/A   Overcast
9:53 AM 57.0 °F - 52.0 °F 83% 30.14 in 10.0 mi NW 10.4 mph - N/A   Overcast
10:53 AM 57.0 °F - 50.0 °F 77% 30.15 in 10.0 mi NW 8.1 mph - N/A   Overcast
11:53 AM 55.0 °F - 50.0 °F 83% 30.17 in 9.0 mi WNW 11.5 mph - 0.00 in Rain Light Rain
12:53 PM 59.0 °F - 48.9 °F 69% 30.15 in 10.0 mi NW 12.7 mph 21.9 mph 0.00 in   Overcast
1:30 PM 55.4 °F - 46.4 °F 72% 30.16 in 10.0 mi NW 11.5 mph - N/A   Overcast
1:42 PM 55.4 °F - 46.4 °F 72% 30.17 in 10.0 mi NW 10.4 mph - N/A   Overcast
1:53 PM 55.9 °F - 46.9 °F 72% 30.16 in 10.0 mi NW 11.5 mph - N/A   Overcast
2:53 PM 52.0 °F - 46.9 °F 83% 30.16 in 8.0 mi NW 9.2 mph - 0.00 in   Overcast
3:23 PM 51.8 °F - 46.4 °F 82% 30.17 in 7.0 mi NW 10.4 mph 18.4 mph N/A   Overcast
3:34 PM 50.0 °F - 46.4 °F 87% 30.17 in 5.0 mi WNW 11.5 mph - N/A   Overcast
3:53 PM 50.0 °F - 46.0 °F 86% 30.16 in 7.0 mi NW 13.8 mph 19.6 mph N/A   Overcast
4:40 PM 48.2 °F - 44.6 °F 87% 30.16 in 10.0 mi NW 11.5 mph 19.6 mph 0.00 in   Overcast
4:53 PM 48.9 °F - 45.0 °F 86% 30.15 in 10.0 mi NW 11.5 mph - 0.00 in   Overcast
5:27 PM 48.2 °F - 44.6 °F 87% 30.16 in 10.0 mi NW 9.2 mph 19.6 mph N/A   Overcast
5:53 PM 46.9 °F - 43.0 °F 86% 30.16 in 10.0 mi NW 11.5 mph 18.4 mph N/A   Overcast
6:53 PM 45.0 °F 40.6 °F 42.1 °F 90% 30.17 in 8.0 mi NW 8.1 mph - N/A   Overcast
7:05 PM 44.6 °F 40.2 °F 42.8 °F 93% 30.17 in 8.0 mi NW 8.1 mph - 0.00 in Rain Light Rain
7:53 PM 42.1 °F 34.5 °F 39.9 °F 92% 30.17 in 9.0 mi NW 15.0 mph 24.2 mph 0.00 in   Overcast
8:04 PM 42.8 °F 37.0 °F 39.2 °F 87% 30.18 in 8.0 mi NW 10.4 mph 20.7 mph 0.01 in Rain Light Rain
8:08 PM 42.8 °F 37.0 °F 39.2 °F 87% 30.18 in 6.0 mi NW 10.4 mph 20.7 mph 0.01 in Rain Rain
8:25 PM 41.0 °F 34.7 °F 39.2 °F 93% 30.19 in 2.0 mi NW 10.4 mph 24.2 mph 0.10 in Rain Heavy Rain
8:37 PM 41.0 °F 33.5 °F 39.2 °F 93% 30.19 in 4.0 mi NW 13.8 mph 19.6 mph 0.11 in Rain Light Rain
8:53 PM 41.0 °F 34.3 °F 39.0 °F 93% 30.20 in 7.0 mi NW 11.5 mph - 0.11 in Rain Light Rain
9:15 PM 39.2 °F 32.0 °F 37.4 °F 93% 30.19 in 5.0 mi NNW 11.5 mph 19.6 mph 0.01 in Rain Light Rain
9:23 PM 39.2 °F 32.5 °F 37.4 °F 93% 30.20 in 5.0 mi NNW 10.4 mph 18.4 mph 0.01 in Rain Light Rain
9:30 PM 39.2 °F 32.5 °F 37.4 °F 93% 30.19 in 5.0 mi NNW 10.4 mph 19.6 mph 0.01 in Rain Light Rain
9:53 PM 39.9 °F 34.5 °F 39.0 °F 97% 30.20 in 5.0 mi NW 8.1 mph - 0.02 in Rain Light Rain
10:01 PM 39.2 °F 33.0 °F 37.4 °F 93% 30.19 in 3.0 mi NW 9.2 mph 19.6 mph 0.01 in Rain Rain
10:35 PM 39.2 °F 32.0 °F 37.4 °F 93% 30.19 in 4.0 mi NW 11.5 mph 20.7 mph 0.03 in Rain Rain
10:53 PM 37.9 °F 30.5 °F 37.0 °F 97% 30.18 in 10.0 mi NW 11.5 mph 21.9 mph 0.04 in   Overcast
11:46 PM 37.4 °F 29.3 °F 35.6 °F 93% 30.18 in 2.5 mi NW 12.7 mph - 0.17 in Rain Heavy Rain
11:51 PM 37.4 °F 29.3 °F 35.6 °F 93% 30.17 in 3.0 mi NW 12.7 mph 19.6 mph 0.19 in Rain Rain
11:53 PM 37.0 °F 29.3 °F 36.0 °F 96% 30.18 in 3.0 mi NW 11.5 mph 19.6 mph 0.20 in Rain Heavy Rain